Location: Chircca
(13.7944°S, 72.0608°W)
Time: 06:03:06
(UTC+00:00)

SAR-Lupe-1 - Pass Details

Date: 14 July 2020
Orbit: 480 x 486 km, 98.2° (Epoch: 15 July)

Event Time Altitude Azimuth Distance (km) Brightness Sun altitude
Exits shadow 09:36:41 53° 143° (SE) 604 4.5 -22.8°
Maximum altitude 09:37:23 72° 78° (ENE) 512 4.2 -22.6°
Drops below altitude 10° 09:40:57 10° 353° (N) 1,659 6.9 -21.8°
Sets 09:43:00 0° 351° (N) 2,534 7.8 -21.3°
